This demonstration page uses our WeatherBlox Daily Observations layout. Learn more.

Left ArrowRight Arrow

53.62937, 11.41316

Hourly Observations for April 11, 2022

Temp ( °F °C ) Dew Point ( °F °C ) Humidity (%) Winds ( mph kmh ) Pressure ( in mb ) Visibility ( mi km ) Precip ( " mm )
12:20 am 00:20 Mostly Clear 39 4 34 1 81 81 WSW 8 13 30.06 1018 30 48 N/A
12:50 am 00:50 Mostly Clear 39 4 34 1 81 81 WSW 9 15 30.06 1018 30 48 N/A
1:20 am 01:20 Partly Cloudy 37 3 34 1 87 87 WSW 8 13 30.06 1018 30 48 N/A
1:50 am 01:50 Mostly Cloudy 39 4 34 1 81 81 WSW 7 11 30.06 1018 30 48 N/A
2:20 am 02:20 Mostly Clear 37 3 34 1 87 87 WSW 8 13 30.06 1018 30 48 N/A
2:50 am 02:50 Mostly Clear 37 3 34 1 87 87 WSW 8 13 30.06 1018 30 48 N/A
3:20 am 03:20 Mostly Cloudy 37 3 34 1 87 87 WSW 7 11 30.06 1018 30 48 N/A
3:50 am 03:50 Mostly Cloudy 37 3 34 1 87 87 WSW 7 11 30.06 1018 30 48 N/A
4:20 am 04:20 Mostly Cloudy 37 3 34 1 87 87 W 5 7 30.06 1018 30 48 N/A
4:50 am 04:50 Mostly Cloudy 37 3 34 1 87 87 WSW 7 11 30.06 1018 30 48 N/A
5:20 am 05:20 Partly Cloudy 36 2 32 0 87 87 WSW 6 9 30.06 1018 30 48 N/A
5:50 am 05:50 Mostly Clear 34 1 32 0 93 93 SW 5 7 30.06 1018 30 48 N/A
6:20 am 06:20 Mostly Cloudy 36 2 32 0 87 87 WSW 5 7 30.09 1019 30 48 N/A
6:50 am 06:50 Mostly Sunny 34 1 32 0 93 93 WSW 5 7 30.06 1018 30 48 N/A
7:20 am 07:20 Mostly Sunny 34 1 32 0 93 93 SW 5 7 30.09 1019 30 48 N/A
7:50 am 07:50 Mostly Sunny 37 3 34 1 87 87 WSW 5 7 30.09 1019 30 48 N/A
8:20 am 08:20 Partly Cloudy 37 3 34 1 87 87 W 6 9 30.09 1019 30 48 N/A
8:50 am 08:50 Mostly Sunny 39 4 36 2 87 87 W 8 13 30.09 1019 30 48 N/A
9:20 am 09:20 Mostly Cloudy 41 5 36 2 81 81 W 7 11 30.09 1019 30 48 N/A
9:50 am 09:50 Mostly Sunny 41 5 36 2 81 81 W 6 9 30.09 1019 30 48 N/A
10:20 am 10:20 Mostly Sunny 43 6 36 2 76 76 WNW 7 11 30.09 1019 30 48 N/A
10:50 am 10:50 Mostly Cloudy 46 8 37 3 71 71 W 8 13 30.09 1019 30 48 N/A
11:20 am 11:20 Mostly Cloudy 46 8 36 2 66 66 W 6 9 30.09 1019 30 48 N/A
11:50 am 11:50 Mostly Cloudy 46 8 36 2 66 66 WNW 7 11 30.09 1019 30 48 N/A
12:20 pm 12:20 Mostly Cloudy 46 8 36 2 66 66 WNW 7 11 30.09 1019 30 48 N/A
12:50 pm 12:50 Mostly Cloudy 46 8 36 2 66 66 WNW 9 15 30.09 1019 30 48 N/A
1:20 pm 13:20 Mostly Cloudy 48 9 36 2 62 62 WNW 9 15 30.09 1019 30 48 N/A
1:50 pm 13:50 Mostly Cloudy 48 9 36 2 62 62 W 6 9 30.09 1019 30 48 N/A
2:20 pm 14:20 Partly Cloudy 50 10 36 2 58 58 W 7 11 30.06 1018 30 48 N/A
2:50 pm 14:50 Partly Cloudy 50 10 34 1 54 54 WNW 8 13 30.06 1018 30 48 N/A
3:20 pm 15:20 Mostly Cloudy 50 10 34 1 54 54 W 6 9 30.06 1018 30 48 N/A
3:50 pm 15:50 Mostly Cloudy 50 10 34 1 54 54 WNW 6 9 30.06 1018 30 48 N/A
4:20 pm 16:20 Mostly Sunny 52 11 36 2 54 54 NW 7 11 30.06 1018 7 11 N/A
4:50 pm 16:50 Mostly Cloudy 50 10 34 1 54 54 WNW 7 11 30.06 1018 30 48 N/A
5:20 pm 17:20 Partly Cloudy 50 10 34 1 54 54 NNW 5 7 30.03 1017 30 48 N/A
5:50 pm 17:50 Mostly Sunny 52 11 34 1 50 50 WNW 6 9 30.03 1017 30 48 N/A
6:20 pm 18:20 Partly Cloudy 52 11 32 0 47 47 WSW 3 6 30.03 1017 30 48 N/A
6:50 pm 18:50 Mostly Sunny 50 10 32 0 50 50 NNW 6 9 30.03 1017 30 48 N/A
7:20 pm 19:20 Mostly Sunny 46 8 36 2 66 66 ENE 10 17 30.03 1017 30 48 N/A
7:50 pm 19:50 Mostly Sunny 45 7 36 2 71 71 ENE 9 15 30.03 1017 7 11 N/A
8:20 pm 20:20 Mostly Clear 41 5 34 1 76 76 ENE 9 15 30.06 1018 7 11 N/A
8:50 pm 20:50 Mostly Clear 41 5 34 1 76 76 E 6 9 30.06 1018 7 11 N/A
9:20 pm 21:20 Mostly Clear 37 3 30 -1 75 75 ENE 6 9 30.06 1018 30 48 N/A
9:50 pm 21:50 Mostly Clear 36 2 30 -1 81 81 ENE 7 11 30.06 1018 30 48 N/A
10:20 pm 22:20 Mostly Clear 37 3 30 -1 75 75 E 5 7 30.06 1018 30 48 N/A
10:50 pm 22:50 Mostly Clear 39 4 30 -1 70 70 E 3 6 30.06 1018 30 48 N/A
11:20 pm 23:20 Mostly Clear 37 3 30 -1 75 75 E 3 6 30.09 1019 30 48 N/A
11:50 pm 23:50 Mostly Clear 37 3 30 -1 75 75 E 3 6 30.09 1019 30 48 N/A

Powered by AerisWeather